Weather History for Beaufort, NC

Change the Weather History Date:

Sunday, June 30, 2013

  Actual Average Record
Temperature  
Mean Temperature 77 °F -  
Max Temperature 81 °F 86 °F 103 °F (1959)
Min Temperature 73 °F 69 °F 57 °F (1981)
Cooling Degree Days 12    
Growing Degree Days 27 (Base 50)    
Moisture  
Dew Point 74 °F    
Average Humidity 90    
Maximum Humidity 100    
Minimum Humidity 81    
Precipitation  
Precipitation 0.74 in - - ()
Sea Level Pressure  
Sea Level Pressure 29.86 in    
Wind  
Wind Speed 16 mph (SSW)    
Max Wind Speed 22 mph    
Max Gust Speed 37 mph    
Visibility 7 miles    
Events Rain    
Averages and records for this station are not official NWS values.
T = Trace of Precipitation, MM = Missing Value Source: NWS Daily Summary

Daily Weather History Graph

Daily Weather History Graph

Search for Another Location

Airport:

Trip Planner

Search our weather history database for the weather conditions in past years. The results will help you decide how hot, cold, wet, or windy it might be!

Date:

Astronomy

Jun. 30, 2013 Rise Set
Actual Time 5:56 AM EDT 8:23 PM EDT
Civil Twilight 5:27 AM EDT 8:53 PM EDT
Nautical Twilight 4:50 AM EDT 9:29 PM EDT
Astronomical Twilight 4:10 AM EDT 10:09 PM EDT
Moon 12:42 AM EDT (6/30) 1:47 PM EDT (6/30)
Length of Visible Light 15h 26m
Length of Day
14h 27m
Last Quarter, 45% of the Moon is Illuminated
Jun 30
Last Quarter
Jul 8
New
Jul 15
First Quarter
Jul 22
Full
Jul 29
Last Quarter

Hourly Weather History & Observations

Time (EDT) Temp. Heat Index Dew Point Humidity Pressure Visibility Wind Dir Wind Speed Gust Speed Precip Events Conditions
12:28 AM 78.8 °F - 75.2 °F 89% 29.82 in 9.0 mi SSW 20.7 mph 32.2 mph N/A   Mostly Cloudy
12:58 AM 78.1 °F - 73.9 °F 87% 29.82 in 9.0 mi SW 20.7 mph 27.6 mph N/A   Mostly Cloudy
1:58 AM 78.1 °F - 72.0 °F 81% 29.83 in 10.0 mi SSW 19.6 mph 26.5 mph N/A   Scattered Clouds
2:58 AM 79.0 °F - 73.0 °F 82% 29.81 in 10.0 mi SSW 13.8 mph 24.2 mph N/A   Mostly Cloudy
3:58 AM 79.0 °F - 73.9 °F 84% 29.80 in 10.0 mi South 15.0 mph - N/A   Overcast
4:32 AM 77.0 °F - 73.4 °F 89% 29.80 in 2.0 mi South 21.9 mph 36.8 mph 0.00 in Rain Heavy Rain
4:39 AM 75.2 °F - 73.4 °F 94% 29.80 in 3.0 mi SSW 21.9 mph 28.8 mph 0.00 in Rain Light Rain
4:58 AM 75.9 °F - 73.9 °F 94% 29.81 in 5.0 mi South 20.7 mph 27.6 mph 0.02 in Rain Light Rain
5:58 AM 75.9 °F - 73.9 °F 94% 29.83 in 7.0 mi SSW 18.4 mph 24.2 mph 0.06 in Rain Light Rain
6:46 AM 75.2 °F - 73.4 °F 94% 29.83 in 4.0 mi SW 10.4 mph - 0.05 in Rain Rain
6:58 AM 75.9 °F - 73.9 °F 94% 29.84 in 5.0 mi WSW 13.8 mph - 0.06 in Rain Light Rain
7:16 AM 73.4 °F - 71.6 °F 94% 29.86 in 3.0 mi WSW 15.0 mph 24.2 mph 0.02 in Rain Light Rain
7:25 AM 73.4 °F - 71.6 °F 94% 29.86 in 1.8 mi WSW 18.4 mph 33.4 mph 0.02 in Rain Heavy Rain
7:29 AM 73.4 °F - 71.6 °F 94% 29.86 in 1.0 mi WSW 16.1 mph 28.8 mph 0.03 in Rain Heavy Rain
7:42 AM 73.4 °F - 71.6 °F 94% 29.85 in 1.5 mi SW 15.0 mph 25.3 mph 0.05 in Rain Heavy Rain
7:51 AM 73.4 °F - 71.6 °F 94% 29.85 in 3.0 mi SSW 13.8 mph - 0.07 in Rain Light Rain
7:58 AM 73.9 °F - 72.0 °F 93% 29.86 in 5.0 mi SSW 12.7 mph - 0.08 in Rain Light Rain
8:44 AM 75.2 °F - 75.2 °F 100% 29.86 in 7.0 mi SSW 10.4 mph - 0.12 in   Overcast
8:58 AM 77.0 °F - 73.9 °F 90% 29.86 in 9.0 mi SSW 12.7 mph - 0.15 in   Mostly Cloudy
9:09 AM 78.8 °F - 73.4 °F 83% 29.86 in 10.0 mi SW 15.0 mph 20.7 mph 0.02 in   Mostly Cloudy
9:58 AM 78.1 °F - 73.0 °F 84% 29.86 in 10.0 mi SW 10.4 mph - 0.10 in   Scattered Clouds
10:56 AM 78.8 °F - 73.4 °F 83% 29.87 in 9.0 mi SSW 10.4 mph - 0.07 in Rain Light Rain
10:58 AM 79.0 °F - 73.0 °F 82% 29.88 in 4.0 mi SSW 11.5 mph - 0.07 in Rain Light Rain
11:02 AM 77.0 °F - 73.4 °F 89% 29.87 in 1.8 mi WSW 11.5 mph - 0.01 in Rain Heavy Rain
11:09 AM 75.2 °F - 73.4 °F 94% 29.87 in 3.0 mi SSW 9.2 mph 18.4 mph 0.01 in Rain Light Rain
11:21 AM 73.4 °F - 71.6 °F 94% 29.89 in 6.0 mi West 13.8 mph 26.5 mph 0.02 in Rain Light Rain
11:34 AM 73.4 °F - 73.4 °F 100% 29.89 in 6.0 mi WSW 10.4 mph 20.7 mph 0.04 in Rain Light Rain
11:58 AM 75.9 °F - 73.9 °F 94% 29.90 in 4.0 mi SW 17.3 mph 25.3 mph 0.06 in Rain Light Rain
12:58 PM 75.9 °F - 75.0 °F 97% 29.88 in 7.0 mi SSW 12.7 mph - 0.05 in Rain Light Rain
1:58 PM 77.0 °F - 75.0 °F 94% 29.87 in 8.0 mi South 5.8 mph - 0.04 in Rain Light Rain
2:58 PM 79.0 °F - 75.0 °F 88% 29.88 in 10.0 mi SSW 15.0 mph 20.7 mph 0.03 in   Clear
3:58 PM 80.1 °F 84.5 °F 73.9 °F 81% 29.87 in 10.0 mi South 13.8 mph 21.9 mph 0.02 in   Mostly Cloudy
4:58 PM 80.1 °F 85.1 °F 75.0 °F 85% 29.86 in 10.0 mi South 12.7 mph 19.6 mph N/A   Mostly Cloudy
5:09 PM 80.6 °F 86.2 °F 75.2 °F 84% 29.85 in 9.0 mi South 12.7 mph 21.9 mph N/A   Overcast
5:18 PM 80.6 °F 86.2 °F 75.2 °F 84% 29.85 in 9.0 mi South 13.8 mph 20.7 mph N/A   Overcast
5:54 PM 80.6 °F 87.1 °F 77.0 °F 89% 29.86 in 9.0 mi South 13.8 mph - N/A   Overcast
5:58 PM 81.0 °F 87.9 °F 77.0 °F 88% 29.86 in 9.0 mi South 13.8 mph - N/A   Mostly Cloudy
6:17 PM 80.6 °F 86.2 °F 75.2 °F 84% 29.86 in 8.0 mi SSW 13.8 mph 20.7 mph N/A   Scattered Clouds
6:35 PM 80.6 °F 86.2 °F 75.2 °F 84% 29.87 in 8.0 mi South 13.8 mph - N/A   Mostly Cloudy
6:58 PM 79.0 °F - 75.9 °F 90% 29.89 in 9.0 mi South 16.1 mph 23.0 mph N/A   Mostly Cloudy
7:30 PM 80.6 °F 86.2 °F 75.2 °F 84% 29.90 in 9.0 mi SSW 17.3 mph 24.2 mph N/A   Scattered Clouds
7:58 PM 79.0 °F - 75.9 °F 90% 29.91 in 9.0 mi South 10.4 mph - N/A   Clear
8:58 PM 79.0 °F - 75.9 °F 90% 29.92 in 10.0 mi South 9.2 mph - N/A   Clear
9:58 PM 79.0 °F - 75.0 °F 88% 29.93 in 10.0 mi South 11.5 mph - N/A   Clear
10:58 PM 79.0 °F - 75.9 °F 90% 29.94 in 10.0 mi South 11.5 mph - N/A   Clear
11:58 PM 79.0 °F - 75.9 °F 90% 29.94 in 10.0 mi South 9.2 mph - N/A   Scattered Clouds